DW5657 Weather Reports


Display with metric or nautical units.
time (UTC)temp
F
wind
direction
speed
MPH
gust
MPH
rain 1hr
in
rain 24hr
in
rain mn
in
humidity
%
barometer
mb
20260510162703 69 97 1.0 7.0 0.00 0.00 0.00 45 1015.6
20260510162204 69 15 2.0 5.0 0.00 0.00 0.00 46 1015.6
20260510161203 69 26 1.0 5.0 0.00 0.00 0.00 46 1015.5
20260510160704 69 17 1.0 5.0 0.00 0.00 0.00 45 1015.3
20260510155703 69 13 1.0 3.0 0.00 0.00 0.00 46 1015.2
20260510155203 68 210 1.0 5.0 0.00 0.00 0.00 49 1015.1
20260510154705 68 218 1.0 5.0 0.00 0.00 0.00 48 1015.2
20260510154204 68 53 0.0 1.0 0.00 0.00 0.00 47 1015.3
20260510153704 67 45 1.0 3.0 0.00 0.00 0.00 49 1015.3
20260510152704 67 55 1.0 5.0 0.00 0.00 0.00 48 1015.3
20260510152203 67 26 1.0 5.0 0.00 0.00 0.00 48 1015.3
20260510150703 66 51 2.0 3.0 0.00 0.00 0.00 51 1015.0
20260510150205 65 22 0.0 3.0 0.00 0.00 0.00 53 1015.0
20260510145703 65 199 1.0 3.0 0.00 0.00 0.00 53 1014.8
20260510145204 64 15 1.0 5.0 0.00 0.00 0.00 53 1014.9
20260510144703 64 11 3.0 6.0 0.00 0.00 0.00 54 1014.9
20260510144203 64 153 0.0 0.0 0.00 0.00 0.00 58 1014.9
20260510143704 63 54 0.0 3.0 0.00 0.00 0.00 57 1014.8
20260510143203 63 20 1.0 3.0 0.00 0.00 0.00 57 1014.8
20260510142704 63 13 0.0 0.0 0.00 0.00 0.00 58 1014.6
20260510142203 63 15 0.0 1.0 0.00 0.00 0.00 57 1014.6
20260510141704 63 20 0.0 1.0 0.00 0.00 0.00 56 1014.6
20260510141203 63 12 1.0 3.0 0.00 0.00 0.00 56 1014.5
20260510135704 63 22 1.0 3.0 0.00 0.00 0.00 60 1014.2
20260510135203 63 27 2.0 3.0 0.00 0.00 0.00 61 1014.1
20260510134703 63 11 1.0 3.0 0.00 0.00 0.00 60 1014.1
20260510134204 62 45 1.0 3.0 0.00 0.00 0.00 63 1014.1
20260510133203 61 12 1.0 5.0 0.00 0.00 0.00 64 1013.8
20260510132704 61 15 1.0 3.0 0.00 0.00 0.00 64 1013.6
20260510132203 60 156 1.0 3.0 0.00 0.00 0.00 66 1013.5
20260510131703 60 27 0.0 2.0 0.00 0.00 0.00 68 1013.4
20260510131204 60 34 1.0 5.0 0.00 0.00 0.00 69 1013.3
20260510130703 59 16 0.0 5.0 0.00 0.00 0.00 71 1013.3
20260510130204 59 17 1.0 5.0 0.00 0.00 0.00 72 1013.3
20260510125703 58 15 0.0 2.0 0.00 0.00 0.00 74 1013.2
20260510125203 58 17 0.0 2.0 0.00 0.00 0.00 73 1013.3
20260510124703 58 5 0.0 2.0 0.00 0.00 0.00 74 1013.1
20260510124204 58 133 0.0 2.0 0.00 0.00 0.00 75 1013.0
20260510123705 58 5 0.0 0.0 0.00 0.00 0.00 75 1012.9
20260510123203 57 147 0.0 0.0 0.00 0.00 0.00 75 1012.8
20260510122703 57 147 0.0 1.0 0.00 0.00 0.00 77 1012.7
20260510122203 57 150 0.0 1.0 0.00 0.00 0.00 77 1012.6
20260510121704 56 12 0.0 2.0 0.00 0.00 0.00 78 1012.5
20260510121204 56 20 0.0 2.0 0.00 0.00 0.00 78 1012.4
20260510120704 56 19 0.0 0.0 0.00 0.00 0.00 79 1012.3
20260510120203 56 18 0.0 1.0 0.00 0.01 0.00 79 1012.1
20260510115703 56 184 0.0 3.0 0.00 0.01 0.00 80 1012.2
20260510115204 56 177 0.0 3.0 0.00 0.01 0.00 80 1012.1
20260510114703 57 168 0.0 0.0 0.00 0.01 0.00 81 1012.1
20260510114203 57 156 0.0 0.0 0.00 0.01 0.00 80 1012.1
20260510113703 57 156 0.0 0.0 0.00 0.01 0.00 81 1011.9
20260510113203 57 155 0.0 0.0 0.00 0.01 0.00 81 1012.1
20260510111703 57 142 0.0 0.0 0.00 0.01 0.00 79 1012.3
20260510111203 57 146 0.0 0.0 0.00 0.01 0.00 79 1012.3
20260510110703 57 162 0.0 0.0 0.00 0.01 0.00 77 1012.3
20260510110204 57 146 0.0 0.0 0.00 0.01 0.00 77 1012.3
20260510105703 57 145 0.0 0.0 0.00 0.01 0.00 77 1012.1
20260510105203 57 161 0.0 0.0 0.00 0.01 0.00 77 1011.9
20260510104703 57 176 0.0 0.0 0.00 0.01 0.00 77 1011.8
20260510103703 58 174 0.0 0.0 0.00 0.02 0.00 78 1011.3
20260510102703 58 174 0.0 0.0 0.00 0.02 0.00 79 1011.2
20260510102203 58 172 0.0 0.0 0.00 0.03 0.00 79 1011.1
20260510101704 58 169 0.0 0.0 0.00 0.03 0.00 80 1011.0
20260510101203 58 170 0.0 0.0 0.00 0.03 0.00 80 1010.9
20260510100704 58 167 0.0 0.0 0.00 0.03 0.00 80 1010.9
20260510100204 58 150 0.0 0.0 0.00 0.03 0.00 80 1010.7
20260510095704 58 11 0.0 0.0 0.00 0.03 0.00 81 1010.7
20260510095203 58 163 0.0 0.0 0.00 0.03 0.00 81 1010.7
20260510094703 58 167 0.0 0.0 0.00 0.03 0.00 80 1010.5
20260510094204 58 167 1.0 3.0 0.00 0.03 0.00 80 1010.6
20260510093703 58 95 0.0 0.0 0.00 0.03 0.00 79 1010.6
20260510093203 58 94 0.0 0.0 0.00 0.03 0.00 79 1010.6
20260510092705 58 94 0.0 0.0 0.00 0.03 0.00 79 1010.5
20260510091703 58 94 0.0 0.0 0.00 0.03 0.00 78 1010.3
20260510091203 58 93 0.0 0.0 0.00 0.03 0.00 78 1010.3
20260510090704 58 92 0.0 0.0 0.00 0.03 0.00 78 1010.4
20260510090204 58 93 0.0 0.0 0.00 0.03 0.00 78 1010.3
20260510084703 59 91 0.0 0.0 0.00 0.03 0.00 77 1010.1
20260510084204 59 87 0.0 0.0 0.00 0.03 0.00 77 1010.0
20260510083704 59 88 0.0 0.0 0.00 0.03 0.00 77 1010.0
20260510083204 59 89 0.0 0.0 0.00 0.03 0.00 76 1009.9
20260510082704 60 88 0.0 0.0 0.00 0.03 0.00 75 1010.0
20260510082203 60 89 0.0 0.0 0.00 0.03 0.00 75 1010.0
20260510081705 60 87 0.0 0.0 0.00 0.03 0.00 74 1010.0
20260510081205 60 119 0.0 0.0 0.00 0.03 0.00 74 1009.8
20260510080705 61 127 0.0 0.0 0.00 0.03 0.00 73 1009.6
20260510080203 61 129 0.0 0.0 0.00 0.03 0.00 73 1009.7
20260510075203 62 141 0.0 0.0 0.00 0.03 0.00 72 1009.5
20260510074703 62 107 0.0 0.0 0.00 0.03 0.00 71 1009.2
20260510074204 62 135 0.0 1.0 0.00 0.03 0.00 71 1009.3
20260510073704 62 98 0.0 2.0 0.00 0.03 0.00 70 1009.1
20260510073204 62 140 0.0 0.0 0.00 0.03 0.00 70 1009.2
20260510072705 62 86 0.0 0.0 0.00 0.03 0.00 69 1009.0
20260510072203 63 89 0.0 1.0 0.00 0.03 0.00 69 1009.0
20260510071703 63 94 0.0 0.0 0.00 0.03 0.00 69 1009.0
20260510065703 63 94 1.0 3.0 0.00 0.03 0.00 69 1009.0
20260510065203 63 86 0.0 6.0 0.00 0.03 0.00 68 1009.1
20260510064203 63 90 0.0 0.0 0.00 0.03 0.00 69 1009.2
20260510063704 63 88 0.0 0.0 0.00 0.03 0.00 68 1009.2
20260510063203 63 92 0.0 0.0 0.00 0.03 0.00 68 1009.3
20260510062703 63 88 0.0 0.0 0.00 0.03 0.00 68 1009.2
20260510062205 63 86 0.0 0.0 0.00 0.03 0.00 68 1009.3
20260510061705 63 83 0.0 0.0 0.00 0.03 0.00 68 1009.3
20260510061204 63 86 0.0 0.0 0.00 0.03 0.00 68 1009.4
20260510060704 63 85 0.0 1.0 0.00 0.03 0.00 68 1009.4
20260510060203 63 78 0.0 1.0 0.00 0.03 0.00 68 1009.4
20260510055705 63 80 0.0 2.0 0.00 0.03 0.00 68 1009.4
20260510055204 64 85 0.0 2.0 0.00 0.03 0.00 67 1009.4
20260510054705 64 81 0.0 2.0 0.00 0.03 0.00 67 1009.4
20260510054204 64 80 0.0 2.0 0.00 0.03 0.00 67 1009.2
20260510053704 64 82 0.0 2.0 0.00 0.03 0.00 67 1009.3
20260510053203 64 83 0.0 3.0 0.00 0.03 0.00 67 1009.3
20260510052204 63 80 0.0 2.0 0.00 0.03 0.00 67 1009.2
20260510051704 64 78 0.0 2.0 0.00 0.03 0.00 67 1009.2
20260510050703 64 75 0.0 5.0 0.00 0.04 0.00 66 1009.2
20260510050203 64 78 2.0 5.0 0.00 0.04 0.00 66 1009.2
20260510045703 64 80 0.0 5.0 0.00 0.04 0.00 66 1009.2
20260510045203 64 78 1.0 5.0 0.00 0.04 0.00 66 1009.3
20260510044703 64 78 0.0 1.0 0.00 0.04 0.00 66 1009.4
20260510043704 64 83 0.0 2.0 0.00 0.04 0.00 66 1009.5
20260510043204 63 86 0.0 3.0 0.00 0.04 0.00 66 1009.4
20260510042704 63 84 1.0 3.0 0.00 0.04 0.00 66 1009.4
20260510042203 63 83 0.0 0.0 0.00 0.04 0.00 66 1009.3
20260510041705 64 81 0.0 0.0 0.00 0.04 0.00 67 1009.3
20260510040205 64 78 0.0 0.0 0.00 0.04 0.00 67 1009.4
20260510035703 64 78 0.0 0.0 0.00 0.04 0.04 66 1009.4
20260510035203 64 79 0.0 0.0 0.00 0.04 0.04 66 1009.3
20260510034704 64 79 0.0 0.0 0.00 0.04 0.04 66 1009.2
20260510033705 64 78 0.0 1.0 0.00 0.04 0.04 66 1009.2
20260510033205 64 70 0.0 1.0 0.00 0.04 0.04 66 1009.2
20260510032704 64 79 0.0 0.0 0.00 0.04 0.04 66 1009.2
20260510032204 65 79 0.0 0.0 0.00 0.04 0.04 66 1009.2
20260510031703 65 80 0.0 3.0 0.00 0.04 0.04 66 1009.2
20260510031205 65 81 0.0 0.0 0.00 0.04 0.04 66 1009.2
20260510030703 65 81 0.0 0.0 0.00 0.04 0.04 65 1009.1
20260510030205 65 82 0.0 0.0 0.00 0.04 0.04 65 1009.1
20260510025703 65 80 0.0 0.0 0.00 0.04 0.04 66 1009.0
20260510025204 65 78 0.0 1.0 0.00 0.04 0.04 65 1008.9
20260510024704 65 78 0.0 1.0 0.00 0.04 0.04 65 1008.9
20260510023204 65 77 0.0 0.0 0.00 0.04 0.04 64 1008.8
20260510022203 66 77 0.0 0.0 0.00 0.04 0.04 64 1008.7
20260510021704 66 76 0.0 0.0 0.00 0.04 0.04 63 1008.7
20260510021204 66 73 0.0 0.0 0.00 0.04 0.04 63 1008.6
20260510015704 67 68 0.0 0.0 0.00 0.04 0.04 61 1008.4
20260510015205 67 66 0.0 0.0 0.00 0.04 0.04 60 1008.3
20260510014703 68 64 0.0 1.0 0.00 0.04 0.04 60 1008.2
20260510014204 68 64 0.0 1.0 0.00 0.04 0.04 59 1008.2
20260510012704 69 53 0.0 0.0 0.00 0.04 0.04 57 1008.0
20260510012204 69 51 0.0 0.0 0.00 0.04 0.04 56 1007.9
20260510010705 70 46 0.0 0.0 0.00 0.04 0.04 55 1007.7
20260510010204 71 45 0.0 0.0 0.00 0.04 0.04 54 1007.7
20260510005703 71 42 0.0 2.0 0.00 0.04 0.04 54 1007.6
20260510005203 71 40 0.0 2.0 0.00 0.04 0.04 53 1007.5
20260510004704 71 43 0.0 0.0 0.00 0.04 0.04 52 1007.4
20260510004203 72 45 0.0 3.0 0.00 0.04 0.04 52 1007.3
20260510003704 72 42 1.0 3.0 0.00 0.04 0.04 52 1007.2
20260510003204 72 38 2.0 6.0 0.00 0.04 0.04 51 1007.1
20260510002704 72 41 1.0 6.0 0.00 0.04 0.04 51 1007.0
20260510002204 73 38 1.0 7.0 0.00 0.04 0.04 50 1007.0
20260510001703 73 38 2.0 7.0 0.00 0.04 0.04 50 1006.9
20260510001204 73 34 1.0 3.0 0.00 0.04 0.04 49 1006.8
20260510000703 73 35 2.0 5.0 0.00 0.04 0.04 49 1006.8
20260510000204 73 32 2.0 6.0 0.00 0.04 0.04 48 1006.7
20260509235704 73 30 2.0 5.0 0.00 0.04 0.04 48 1006.7
20260509235203 74 29 3.0 9.0 0.00 0.04 0.04 47 1006.6
20260509234704 74 27 1.0 3.0 0.00 0.04 0.04 47 1006.6
20260509234203 74 22 2.0 9.0 0.00 0.04 0.04 47 1006.5
20260509233703 74 28 3.0 9.0 0.00 0.04 0.04 47 1006.5
20260509233203 74 27 4.0 8.0 0.00 0.04 0.04 46 1006.5
20260509232704 74 31 4.0 8.0 0.00 0.04 0.04 46 1006.5
20260509232204 75 29 5.0 12.0 0.00 0.04 0.04 46 1006.4
20260509231704 75 100 3.0 8.0 0.00 0.04 0.04 47 1006.4
20260509230704 75 66 4.0 9.0 0.00 0.04 0.04 47 1006.3
20260509230204 75 74 4.0 12.0 0.00 0.04 0.04 46 1006.3
20260509225703 75 92 4.0 13.0 0.00 0.04 0.04 46 1006.3
20260509225203 75 167 5.0 13.0 0.00 0.04 0.04 46 1006.3
20260509224703 76 215 5.0 12.0 0.00 0.04 0.04 46 1006.3
20260509224204 76 211 4.0 12.0 0.00 0.04 0.04 47 1006.3
20260509223703 76 214 5.0 10.0 0.00 0.04 0.04 46 1006.2
20260509223204 76 207 5.0 12.0 0.00 0.04 0.04 46 1006.2
20260509222704 76 215 2.0 12.0 0.00 0.04 0.04 46 1006.2
20260509222204 76 216 3.0 8.0 0.00 0.04 0.04 46 1006.3
20260509221703 76 236 2.0 10.0 0.00 0.04 0.04 47 1006.2
20260509220704 76 222 6.0 10.0 0.00 0.04 0.04 47 1006.3
20260509220203 76 196 6.0 9.0 0.00 0.04 0.04 46 1006.3
20260509215703 77 212 4.0 8.0 0.00 0.04 0.04 47 1006.3
20260509215205 76 144 3.0 10.0 0.00 0.04 0.04 47 1006.3
20260509214703 77 217 5.0 10.0 0.00 0.04 0.04 47 1006.4
20260509214203 76 205 5.0 9.0 0.00 0.04 0.04 47 1006.4
20260509212704 76 217 3.0 9.0 0.00 0.04 0.04 49 1006.4
20260509212203 76 181 4.0 8.0 0.00 0.04 0.04 49 1006.5
20260509211203 75 110 3.0 10.0 0.00 0.04 0.04 49 1006.4
20260509210204 75 185 3.0 8.0 0.00 0.04 0.04 49 1006.5
20260509205703 75 50 5.0 10.0 0.00 0.04 0.04 50 1006.5
20260509205204 75 54 6.0 10.0 0.00 0.04 0.04 49 1006.5
20260509204204 74 204 3.0 10.0 0.00 0.04 0.04 51 1006.6
20260509203704 74 51 5.0 10.0 0.00 0.04 0.04 50 1006.6
20260509203205 74 0 3.0 7.0 0.00 0.04 0.04 51 1006.6
20260509202703 74 0 6.0 10.0 0.00 0.04 0.04 49 1006.7
20260509202204 74 2 5.0 10.0 0.00 0.04 0.04 50 1006.8
20260509201204 73 57 1.0 6.0 0.00 0.04 0.04 55 1006.8
20260509200704 73 60 3.0 8.0 0.00 0.04 0.04 55 1006.8
20260509200205 73 62 6.0 14.0 0.00 0.04 0.04 54 1006.9
20260509195703 73 64 4.0 12.0 0.00 0.04 0.04 55 1007.0
20260509195205 73 66 2.0 7.0 0.00 0.04 0.04 58 1007.1
20260509194704 72 52 1.0 6.0 0.00 0.04 0.04 56 1007.0
20260509194204 72 57 3.0 8.0 0.00 0.04 0.04 53 1007.1
20260509193705 72 54 5.0 10.0 0.00 0.04 0.04 52 1007.2
20260509193205 72 66 2.0 5.0 0.00 0.04 0.04 57 1007.2
20260509192705 72 68 4.0 8.0 0.00 0.04 0.04 56 1007.3
20260509192204 71 57 5.0 13.0 0.00 0.04 0.04 57 1007.3
20260509191204 71 41 3.0 12.0 0.00 0.04 0.04 59 1007.5
20260509190705 71 48 7.0 12.0 0.00 0.04 0.04 57 1007.5
20260509190203 71 56 5.0 9.0 0.00 0.04 0.04 59 1007.6
20260509185704 71 60 4.0 12.0 0.00 0.04 0.04 59 1007.6
20260509185204 71 55 3.0 12.0 0.00 0.04 0.04 59 1007.6
20260509184704 71 40 3.0 12.0 0.00 0.04 0.04 61 1007.6
20260509184205 71 54 5.0 12.0 0.00 0.04 0.04 60 1007.6
20260509183703 70 35 2.0 6.0 0.00 0.04 0.04 61 1007.6
20260509183204 70 49 2.0 10.0 0.00 0.04 0.04 60 1007.6
20260509182704 70 45 3.0 10.0 0.00 0.04 0.04 62 1007.6
20260509182204 70 54 3.0 9.0 0.00 0.04 0.04 61 1007.7
20260509181704 69 55 2.0 8.0 0.00 0.04 0.04 61 1007.8
20260509180705 69 43 5.0 9.0 0.00 0.04 0.04 60 1007.8
20260509180204 69 48 2.0 8.0 0.00 0.04 0.04 61 1007.7
20260509175704 69 41 3.0 8.0 0.00 0.04 0.04 61 1007.6
20260509175203 69 44 3.0 8.0 0.00 0.04 0.04 59 1007.7
20260509174704 69 64 5.0 10.0 0.00 0.04 0.04 60 1007.7
20260509174204 69 73 3.0 10.0 0.00 0.04 0.04 60 1007.7
20260509173705 69 64 2.0 5.0 0.00 0.04 0.04 62 1007.8
20260509173204 69 68 5.0 8.0 0.00 0.04 0.04 61 1007.8
20260509172705 68 62 2.0 7.0 0.00 0.04 0.04 64 1007.8
20260509172204 68 54 4.0 7.0 0.00 0.04 0.04 63 1007.9
20260509170705 67 59 0.0 3.0 0.00 0.04 0.04 65 1007.8
20260509170204 67 36 1.0 7.0 0.00 0.04 0.04 63 1007.9
20260509165705 67 50 2.0 7.0 0.00 0.04 0.04 64 1008.0
20260509165204 68 42 3.0 10.0 0.00 0.04 0.04 63 1008.0
20260509164704 68 69 3.0 6.0 0.00 0.04 0.04 65 1008.0
20260509164204 67 54 3.0 10.0 0.00 0.04 0.04 65 1008.1
20260509163704 67 51 3.0 10.0 0.00 0.04 0.04 68 1008.0
20260509163204 67 42 3.0 6.0 0.00 0.04 0.04 69 1008.1